Location: Pine Mountain Observatory
(43.7910°N, 120.9377°W)
Time: 08:36:28
(UTC-07:00)

Daily predictions for brighter satellites

Satellite Brightness Start Highest point End
(mag) Time Altitude Azimuth Time Altitude Azimuth Time Altitude Azimuth
Cosmos 1980 4.1 19:14:39 10° SSW 19:20:17 73° WNW 19:25:58 10° NNE
SL-16 R/B 2.4 19:20:33 10° S 19:26:04 53° ESE 19:31:35 10° NE
Cosmos 1953 3.5 19:24:07 10° SE 19:27:10 21° E 19:30:13 10° NE
USA 215 3.6 19:22:10 10° ENE 19:28:26 46° SE 19:34:38 10° SSW
Cosmos 292 Rocket 4.0 19:23:40 10° SSW 19:28:27 77° WNW 19:33:19 10° NNE
ATLAS CENTAUR R/B 3.7 19:28:01 10° SSW 19:32:54 55° ESE 19:47:41 10° NE
Spot 1 4.4 19:29:34 10° SSE 19:34:13 55° ENE 19:38:37 10° N
Helios 1A 3.5 19:31:02 10° SE 19:34:56 40° ENE 19:38:52 10° N
Cosmos 1805 4.2 19:34:16 10° SSE 19:37:35 27° E 19:40:57 10° NNE
Cosmos 1378 3.0 19:34:10 10° N 19:37:54 70° E 19:41:37 10° SSE
H-2A R/B 4.2 19:36:26 10° ESE 19:39:17 20° ENE 19:42:09 10° NNE
SeaSat 1 4.0 19:36:54 10° ENE 19:39:36 15° ESE 19:42:16 10° SE
COSMO-SKYMED 1 3.4 19:35:35 10° N 19:39:50 56° WNW 19:44:05 10° SSW
Cosmos 1072 Rocket 4.4 19:34:16 10° S 19:40:16 63° E 19:46:18 10° NNE
Meteor 1-28 Rocket 3.1 19:37:24 10° NNE 19:41:08 72° ESE 19:44:49 10° S
Cosmos 1452 Rocket 3.8 19:36:08 10° N 19:41:14 48° ENE 19:46:18 10° SE
CZ-4B DEB 4.1 19:39:32 11° ESE 19:41:51 22° ENE 19:44:26 10° NNE
Cosmos 2219 Rocket 4.0 19:40:32 10° WSW 19:45:37 34° NW 19:50:46 10° N
ATLAS 3B R/B 4.2 19:38:46 10° WSW 19:45:49 40° NW 19:52:39 10° NNE
METEOR-M 4.1 19:40:45 10° SSE 19:46:03 71° ENE 19:51:25 10° N
OAO 3 Rocket 4.5 19:43:53 10° SW 19:47:53 27° S 19:51:10 14° ESE
ALOS 2.9 19:44:18 10° SE 19:48:32 36° ENE 19:52:49 10° N
Cosmos 2278 Rocket 3.9 19:44:25 10° NW 19:49:32 36° WSW 19:54:36 10° S
Meteor 1-22 Rocket 4.2 19:46:47 10° S 19:52:09 84° W 19:57:28 10° N
FREGAT/IRIS 3.1 19:51:36 10° S 19:54:40 65° W 19:57:45 10° NNW
Cosmos 2297 4.1 19:49:06 10° NNW 19:54:44 66° WSW 20:00:18 10° SSE
FENGYUN 3A 4.0 19:50:05 10° SE 19:55:09 44° ENE 20:00:15 10° N
SJ-6B 3.8 19:54:55 10° S 19:58:46 52° W 20:02:46 10° NNW
Cosmos 1470 4.2 19:59:50 18° ENE 19:59:50 18° ENE 20:01:59 10° NE
Meteor 1-24 Rocket 4.4 19:55:01 10° NNW 20:00:35 58° W 20:05:55 10° S
Cosmos 1766 Rocket 3.4 19:56:12 10° N 20:00:36 74° E 20:04:56 10° SSE
NOSS 3-2 (A) 3.5 19:56:39 10° SSW 20:02:45 85° SE 20:09:28 10° NE
Cosmos 1420 Rocket 4.4 19:59:10 10° N 20:04:13 44° ENE 20:07:54 18° SE
CZ-4C R/B 3.5 20:01:59 10° WSW 20:07:07 40° NW 20:12:55 10° NNE
Cosmos 2369 Rocket 3.2 20:03:36 10° N 20:08:25 28° NE 20:10:43 21° E
Cosmos 1758 3.3 20:04:33 10° S 20:08:36 65° E 20:12:41 10° NNE
Cosmos 1603 3.9 20:07:48 10° S 20:13:18 49° ESE 20:18:49 10° NE
Cosmos 2034 Rocket 3.9 20:08:30 10° S 20:14:45 80° E 20:21:06 10° N
Cosmos 1943 Rocket 3.8 20:11:57 10° N 20:15:25 16° NE 20:16:47 15° ENE
Cosmos 1076 Rocket 4.1 20:12:29 10° NNW 20:16:45 60° W 20:21:01 10° S
Cosmos 1464 Rocket 4.2 20:11:00 10° SSW 20:17:14 75° W 20:23:27 10° N
Helios 1B rocket 2.5 20:13:54 10° N 20:18:01 79° WNW 20:22:08 10° SSW
Cosmos 1269 Rocket 4.2 20:15:44 10° S 20:20:45 46° ESE 20:25:47 10° NNE
Spot 2 Rocket 4.0 20:17:48 10° S 20:22:46 60° WSW 20:27:46 10° NNW
Cosmos-2242 2.9 20:18:44 10° S 20:23:05 84° E 20:27:31 10° N
ASTEX 1 3.4 20:18:56 10° NNE 20:23:47 57° E 20:28:35 10° S
Cosmos 1048 Rocket 4.3 20:19:55 10° S 20:24:54 43° ESE 20:29:51 10° NNE
Cosmos 1674 2.9 20:22:25 10° N 20:26:12 48° ENE 20:26:55 42° ESE
SL-8 R/B 4.4 20:23:09 10° SSW 20:27:23 32° SE 20:27:44 32° SE
FengYun 1-2 T 4.4 20:23:30 10° S 20:29:00 72° WSW 20:34:31 10° NNW
Cosmos 1346 2.9 20:28:57 10° NNW 20:31:56 85° W 20:32:16 67° S
Envisat 3.9 20:33:30 29° ENE 20:33:43 29° ENE 20:38:04 10° N
Cosmos 1842 Rocket 3.6 20:32:03 25° SSE 20:34:20 52° E 20:38:35 10° NNE
Cosmos 1939 Rocket 4.4 20:35:39 21° NE 20:35:39 21° NE 20:37:44 10° NNE
Cosmos 1500 Rocket 3.5 20:30:23 10° N 20:34:47 60° E 20:36:15 38° SE
TELKOM 3 4.4 20:33:43 10° WNW 20:35:34 37° NW 20:35:34 37° NW
Cosmos 2151 3.9 20:34:14 10° N 20:37:16 31° NE 20:37:16 31° NE
CENTAUR R/B 2.9 20:34:26 10° S 20:39:52 36° ESE 20:40:44 35° E
NOSS 3-2 (C) 3.8 20:34:26 10° SW 20:40:33 70° NW 20:47:17 10° NE
Resurs 01 Rocket 3.5 20:44:02 10° SSW 20:47:59 31° W 20:51:57 10° NW
CZ-2D R/B 4.0 20:53:47 27° SSW 20:55:39 52° W 20:59:30 10° NNW
ATLAS 5 CENTAUR R/B 2.5 20:53:33 10° SW 20:58:17 55° NW 21:03:29 10° NNE
Cosmos 1953 4.4 20:59:58 10° SW 21:03:27 28° WNW 21:06:56 10° NNW
SL-16 R/B 4.3 21:05:44 10° WSW 21:10:29 27° NW 21:15:17 10° N
USA 215 3.7 21:05:08 10° NE 21:11:33 60° NNW 21:17:57 10° WSW
H-2A R/B 4.4 21:11:42 23° SW 21:13:23 33° W 21:16:55 10° NNW
ERS-1 Rocket 2.9 21:14:56 74° NE 21:14:56 74° NE 21:19:45 10° N
Cosmos 1110 Rocket 4.3 21:10:33 10° NNW 21:15:10 53° NE 21:15:10 53° NE
GP-B 3.3 21:11:44 10° N 21:16:10 69° W 21:16:19 69° W
SeaSat 1 2.5 21:12:39 10° NNE 21:17:37 79° WNW 21:22:33 10° SSW
BREEZE-M DEB (TANK) 4.3 21:15:23 10° W 21:25:44 57° NNW 21:26:54 46° NNE
ALOS 4.3 21:22:14 10° SSW 21:26:03 25° W 21:29:54 10° NW
Cosmos 1655 Rocket 3.8 21:20:17 10° N 21:26:33 81° E 21:26:58 76° SE
Cosmos 2279 Rocket 4.1 21:28:27 57° NE 21:28:27 57° NE 21:33:36 10° NNE
H-2A R/B 4.0 21:46:04 24° N 21:46:04 24° N 21:47:54 10° N
Cosmos 2026 Rocket 4.2 21:41:17 10° NNW 21:47:19 65° W 21:47:56 61° SW
Cosmos 2369 Rocket 2.8 21:47:15 10° NW 21:52:32 50° WSW 21:52:32 50° WSW
Cosmos 1943 4.4 21:48:26 10° SW 21:56:26 33° N 21:59:36 10° NNE
Cosmos 1943 Rocket 3.0 21:54:24 10° NNW 21:58:18 46° NNW 21:58:18 46° NNW
H-2A R/B 4.3 22:14:42 16° N 22:14:42 16° N 22:15:49 10° N
CENTAUR R/B 3.6 22:24:17 10° WSW 22:33:45 27° NNE 22:37:06 10° NNE
